TimeEDT,TemperatureF,Dew PointF,Humidity,Sea Level PressureIn,VisibilityMPH,Wind Direction,Wind SpeedMPH,Gust SpeedMPH,PrecipitationIn,Events,Conditions,WindDirDegrees,DateUTC
12:53 AM,61.0,59.0,93,30.14,10.0,Calm,Calm,-,N/A,,Clear,0,2013-07-13 04:53:00
1:53 AM,61.0,59.0,93,30.14,10.0,ENE,3.5,-,N/A,,Clear,60,2013-07-13 05:53:00
2:53 AM,63.0,59.0,87,30.14,10.0,ENE,3.5,-,N/A,,Clear,60,2013-07-13 06:53:00
3:53 AM,61.0,57.9,90,30.15,10.0,ENE,3.5,-,N/A,,Clear,60,2013-07-13 07:53:00
4:53 AM,60.1,57.0,90,30.16,10.0,NE,4.6,-,N/A,,Clear,40,2013-07-13 08:53:00
5:53 AM,61.0,57.0,87,30.17,10.0,ENE,3.5,-,0.01,,Clear,60,2013-07-13 09:53:00
6:53 AM,63.0,59.0,87,30.18,10.0,NE,4.6,-,N/A,,Clear,50,2013-07-13 10:53:00
7:53 AM,68.0,63.0,84,30.18,10.0,ENE,4.6,-,N/A,,Clear,60,2013-07-13 11:53:00
8:53 AM,71.1,64.9,81,30.19,10.0,East,5.8,-,N/A,,Clear,80,2013-07-13 12:53:00
9:53 AM,75.0,63.0,66,30.19,10.0,East,6.9,-,N/A,,Clear,90,2013-07-13 13:53:00
10:53 AM,77.0,62.1,60,30.19,10.0,East,5.8,-,N/A,,Clear,100,2013-07-13 14:53:00
11:53 AM,79.0,59.0,50,30.19,10.0,ESE,8.1,-,N/A,,Clear,110,2013-07-13 15:53:00
12:53 PM,81.0,60.1,49,30.19,10.0,East,6.9,-,N/A,,Clear,100,2013-07-13 16:53:00
1:53 PM,82.9,60.1,46,30.19,10.0,ENE,8.1,-,N/A,,Clear,60,2013-07-13 17:53:00
2:53 PM,82.0,61.0,49,30.19,10.0,East,9.2,-,N/A,,Clear,80,2013-07-13 18:53:00
3:53 PM,82.9,62.1,49,30.17,10.0,ESE,4.6,-,N/A,,Clear,120,2013-07-13 19:53:00
4:53 PM,82.0,63.0,52,30.17,10.0,SE,8.1,-,N/A,,Clear,130,2013-07-13 20:53:00
5:53 PM,81.0,64.0,56,30.17,10.0,ESE,8.1,-,N/A,,Partly Cloudy,120,2013-07-13 21:53:00
6:53 PM,81.0,66.0,60,30.17,10.0,SE,8.1,-,N/A,,Mostly Cloudy,140,2013-07-13 22:53:00
7:53 PM,79.0,64.9,62,30.17,10.0,ESE,6.9,-,N/A,,Clear,120,2013-07-13 23:53:00
8:53 PM,75.0,64.9,71,30.17,10.0,ESE,4.6,-,N/A,,Clear,120,2013-07-14 00:53:00
9:53 PM,72.0,64.9,78,30.19,7.0,SE,8.1,-,N/A,,Clear,140,2013-07-14 01:53:00
10:53 PM,70.0,64.9,84,30.21,10.0,SE,4.6,-,N/A,,Clear,130,2013-07-14 02:53:00
11:53 PM,64.9,63.0,93,30.22,10.0,Calm,Calm,-,N/A,,Clear,0,2013-07-14 03:53:00